• Em Portugal
  • Lista de países
  • Para 7 dias
  • Temperatura da água
  • Mapas de satélite
  • Mapa do tempo
  • Widgets de tempo
  • user-avatar
    Iniciar Sessão

    Previsão horária em Bulgan

    Hoje, 22 Setembro, Sábado

    Tempo Temperatura Precipitação Vento Pressão Humidade
    00:00 +1°C° 0 mm 1 m/s 630 mmHg 59%
    01:00 0°C° 0 mm 1 m/s 630 mmHg 62%
    02:00 0°C° 0 mm 1 m/s 630 mmHg 63%
    03:00 0°C° 0 mm 1 m/s 630 mmHg 65%
    04:00 0°C° 0 mm 1 m/s 631 mmHg 67%
    05:00 0°C° 0 mm 1 m/s 631 mmHg 67%
    06:00 0°C° 0 mm 1 m/s 632 mmHg 66%
    07:00 +1°C° 0 mm 1 m/s 632 mmHg 66%
    08:00 +3°C° 0 mm 1 m/s 633 mmHg 59%
    09:00 +5°C° 0 mm 1 m/s 633 mmHg 52%
    10:00 +7°C° 0 mm 1 m/s 634 mmHg 46%
    11:00 +7°C° 0 mm 1 m/s 633 mmHg 43%
    12:00 +7°C° 0 mm 2 m/s 633 mmHg 40%
    13:00 +8°C° 0 mm 2 m/s 633 mmHg 37%
    14:00 +10°C° 0 mm 1 m/s 633 mmHg 37%
    15:00 +10°C° 0 mm 1 m/s 633 mmHg 38%
    16:00 +10°C° 0 mm 1 m/s 633 mmHg 38%
    17:00 +8°C° 0 mm 1 m/s 633 mmHg 44%
    18:00 +6°C° 0 mm 1 m/s 632 mmHg 49%
    19:00 +4°C° 0 mm 1 m/s 632 mmHg 55%
    20:00 +3°C° 0 mm 1 m/s 632 mmHg 57%
    21:00 +3°C° 0 mm 1 m/s 632 mmHg 59%
    22:00 +2°C° 0 mm 1 m/s 632 mmHg 61%
    23:00 +2°C° 0 mm 1 m/s 632 mmHg 63%

    Amanhã, 23 Setembro, Domingo

    Tempo Temperatura Precipitação Vento Pressão Humidade
    00:00 +2°C° 0 mm 1 m/s 631 mmHg 64%
    01:00 +1°C° 0 mm 1 m/s 631 mmHg 66%
    02:00 +1°C° 0 mm 1 m/s 631 mmHg 66%
    03:00 +1°C° 0 mm 1 m/s 631 mmHg 67%
    04:00 +1°C° 0 mm 1 m/s 630 mmHg 67%
    05:00 +1°C° 0 mm 1 m/s 631 mmHg 66%
    06:00 +2°C° 0 mm 1 m/s 631 mmHg 65%
    07:00 +2°C° 0 mm 1 m/s 631 mmHg 63%
    08:00 +4°C° 0 mm 1 m/s 631 mmHg 57%
    09:00 +6°C° 0 mm 1 m/s 631 mmHg 51%
    10:00 +7°C° 0 mm 2 m/s 631 mmHg 45%
    11:00 +9°C° 0 mm 2 m/s 631 mmHg 43%
    12:00 +10°C° 0 mm 2 m/s 631 mmHg 41%
    13:00 +12°C° 0 mm 2 m/s 631 mmHg 39%
    14:00 +12°C° 0 mm 2 m/s 630 mmHg 40%
    15:00 +12°C° 0 mm 2 m/s 630 mmHg 42%
    16:00 +12°C° 0 mm 2 m/s 630 mmHg 44%
    17:00 +9°C° 0 mm 2 m/s 629 mmHg 50%
    18:00 +8°C° 0 mm 1 m/s 628 mmHg 56%
    19:00 +6°C° 0 mm 1 m/s 628 mmHg 62%
    20:00 +6°C° 0 mm 1 m/s 628 mmHg 63%
    21:00 +5°C° 0 mm 1 m/s 628 mmHg 64%
    22:00 +5°C° 0 mm 1 m/s 628 mmHg 65%
    23:00 +5°C° 0 mm 1 m/s 628 mmHg 63%

    Depois de amanhã, 24 Setembro, Segunda-feira

    Tempo Temperatura Precipitação Vento Pressão Humidade
    00:00 +5°C° 0 mm 1 m/s 628 mmHg 62%
    01:00 +6°C° 0 mm 1 m/s 628 mmHg 60%
    02:00 +6°C° 0 mm 1 m/s 627 mmHg 60%
    03:00 +5°C° 0 mm 1 m/s 627 mmHg 61%
    04:00 +4°C° 0 mm 0 m/s 627 mmHg 61%
    05:00 +4°C° 0 mm 0 m/s 627 mmHg 61%
    06:00 +5°C° 0 mm 1 m/s 627 mmHg 62%
    07:00 +6°C° 0 mm 1 m/s 628 mmHg 63%
    08:00 +7°C° 0 mm 1 m/s 628 mmHg 57%
    09:00 +9°C° 0 mm 1 m/s 628 mmHg 52%
    10:00 +11°C° 0 mm 1 m/s 629 mmHg 46%
    11:00 +12°C° 0 mm 1 m/s 629 mmHg 44%
    12:00 +14°C° 0 mm 1 m/s 629 mmHg 42%
    13:00 +15°C° 0 mm 1 m/s 629 mmHg 39%
    14:00 +15°C° 0 mm 1 m/s 628 mmHg 41%
    15:00 +15°C° 0 mm 1 m/s 628 mmHg 43%
    16:00 +15°C° 0 mm 1 m/s 628 mmHg 45%
    17:00 +13°C° 0 mm 1 m/s 627 mmHg 50%
    18:00 +11°C° 0 mm 1 m/s 626 mmHg 56%
    19:00 +9°C° 0 mm 1 m/s 626 mmHg 62%
    20:00 +9°C° 0 mm 1 m/s 626 mmHg 63%
    21:00 +8°C° 0 mm 1 m/s 626 mmHg 64%
    22:00 +8°C° 0 mm 1 m/s 626 mmHg 64%
    23:00 +8°C° 0.1 mm 1 m/s 626 mmHg 66%

    25 Setembro, Terça-feira

    Tempo Temperatura Precipitação Vento Pressão Humidade
    00:00 +7°C° 0.1 mm 1 m/s 625 mmHg 67%
    01:00 +6°C° 0.1 mm 0 m/s 625 mmHg 69%
    02:00 +6°C° 0 mm 0 m/s 625 mmHg 69%
    03:00 +6°C° 0 mm 1 m/s 625 mmHg 69%
    04:00 +6°C° 0 mm 1 m/s 624 mmHg 70%
    05:00 +6°C° 0 mm 1 m/s 625 mmHg 70%
    06:00 +5°C° 0 mm 0 m/s 625 mmHg 70%
    07:00 +5°C° 0 mm 0 m/s 625 mmHg 70%
    08:00 +7°C° 0 mm 0 m/s 626 mmHg 64%
    09:00 +10°C° 0 mm 1 m/s 626 mmHg 58%
    10:00 +11°C° 0 mm 1 m/s 627 mmHg 52%
    11:00 +12°C° 0 mm 1 m/s 627 mmHg 50%
    12:00 +13°C° 0 mm 1 m/s 627 mmHg 48%
    13:00 +13°C° 0 mm 1 m/s 627 mmHg 47%
    14:00 +13°C° 0 mm 1 m/s 626 mmHg 51%
    15:00 +12°C° 0 mm 1 m/s 626 mmHg 55%
    16:00 +12°C° 0 mm 1 m/s 626 mmHg 59%
    17:00 +11°C° 0.2 mm 1 m/s 626 mmHg 65%
    18:00 +10°C° 0.2 mm 1 m/s 625 mmHg 70%
    19:00 +8°C° 0.2 mm 0 m/s 625 mmHg 76%
    20:00 +7°C° 0.3 mm 0 m/s 625 mmHg 78%
    21:00 +8°C° 0.3 mm 1 m/s 625 mmHg 81%
    22:00 +7°C° 0.3 mm 1 m/s 625 mmHg 84%
    23:00 +7°C° 0.1 mm 1 m/s 625 mmHg 85%

    26 Setembro, Quarta-feira

    Tempo Temperatura Precipitação Vento Pressão Humidade
    00:00 +7°C° 0.1 mm 1 m/s 625 mmHg 86%
    01:00 +7°C° 0.1 mm 1 m/s 625 mmHg 88%
    02:00 +6°C° 0.1 mm 1 m/s 625 mmHg 89%
    03:00 +6°C° 0.1 mm 1 m/s 625 mmHg 90%
    04:00 +6°C° 0.1 mm 1 m/s 625 mmHg 91%
    05:00 +5°C° 0.3 mm 2 m/s 625 mmHg 92%
    06:00 +5°C° 0.3 mm 2 m/s 625 mmHg 92%
    07:00 +5°C° 0.3 mm 2 m/s 625 mmHg 93%
    08:00 +4°C° 0.6 mm 3 m/s 625 mmHg 91%
    09:00 +4°C° 0.6 mm 3 m/s 625 mmHg 89%
    10:00 +4°C° 0.6 mm 3 m/s 626 mmHg 87%
    11:00 +4°C° 0.6 mm 4 m/s 625 mmHg 87%
    12:00 +4°C° 0.6 mm 4 m/s 625 mmHg 87%
    13:00 +4°C° 0.6 mm 4 m/s 625 mmHg 86%
    14:00 +3°C° 0.6 mm 5 m/s 625 mmHg 87%
    15:00 +3°C° 0.6 mm 5 m/s 625 mmHg 87%
    16:00 +3°C° 0.6 mm 6 m/s 626 mmHg 87%
    17:00 +3°C° 0.7 mm 6 m/s 626 mmHg 88%
    18:00 +3°C° 0.7 mm 6 m/s 626 mmHg 88%
    19:00 +3°C° 0.7 mm 6 m/s 627 mmHg 89%
    20:00 +2°C° 0.6 mm 6 m/s 627 mmHg 88%
    21:00 +2°C° 0.6 mm 6 m/s 628 mmHg 88%
    22:00 +2°C° 0.6 mm 6 m/s 628 mmHg 88%
    23:00 +2°C° 0.4 mm 6 m/s 628 mmHg 88%

    27 Setembro, Quinta-feira

    Tempo Temperatura Precipitação Vento Pressão Humidade
    00:00 +1°C° 0.4 mm 5 m/s 628 mmHg 88%
    01:00 +1°C° 0.4 mm 5 m/s 629 mmHg 88%
    02:00 +1°C° 0.2 mm 4 m/s 629 mmHg 88%
    03:00 +1°C° 0.2 mm 4 m/s 629 mmHg 87%
    04:00 +2°C° 0.2 mm 3 m/s 630 mmHg 87%
    05:00 +1°C° 0.1 mm 3 m/s 630 mmHg 88%
    06:00 +1°C° 0.1 mm 3 m/s 630 mmHg 88%
    07:00 +2°C° 0.1 mm 2 m/s 631 mmHg 88%
    08:00 +2°C° 0 mm 3 m/s 631 mmHg 79%
    09:00 +4°C° 0 mm 3 m/s 632 mmHg 71%
    10:00 +5°C° 0 mm 3 m/s 632 mmHg 62%
    11:00 +7°C° 0 mm 3 m/s 632 mmHg 58%
    12:00 +7°C° 0 mm 4 m/s 632 mmHg 54%
    13:00 +8°C° 0 mm 4 m/s 632 mmHg 50%
    14:00 +8°C° 0 mm 4 m/s 632 mmHg 51%
    15:00 +8°C° 0 mm 4 m/s 632 mmHg 51%
    16:00 +8°C° 0 mm 4 m/s 632 mmHg 52%
    17:00 +8°C° 0 mm 3 m/s 632 mmHg 57%
    18:00 +6°C° 0 mm 2 m/s 632 mmHg 62%
    19:00 +6°C° 0 mm 1 m/s 632 mmHg 67%
    20:00 +6°C° 0 mm 1 m/s 632 mmHg 68%
    21:00 +5°C° 0 mm 1 m/s 632 mmHg 69%
    22:00 +5°C° 0 mm 1 m/s 633 mmHg 70%
    23:00 +5°C° 0 mm 1 m/s 633 mmHg 71%
    Mostrar mais